Total_Precipitation_Accumulation
0.48 0.42 0.39 0.45 0.46 0.41 0.37 0.43 0.49 0.52 0.53 0.65 0.80 0.90 0.98 1.12 1.30 1.35 1.42 1.57 1.60 1.60 1.69 1.79 1.86 1.83 1.78 1.88 2.08 2.48 2.37 2.02 1.80 1.81 1.70 1.55 1.53 1.58 1.54 1.68 1.75 1.66 1.61
0.37 0.34 0.32 0.35 0.37 0.38 0.36 0.38 0.49 0.58 0.62 0.68 0.82 0.99 1.22 1.30 1.43 1.59 1.59 1.60 1.66 1.70 1.77 1.95 2.07 2.05 2.06 2.16 2.22 2.50 2.69 2.43 2.21 2.20 2.37 2.14 1.93 1.61 1.36 1.41 1.53 1.59 1.63
0.32 0.26 0.28 0.30 0.32 0.34 0.42 0.44 0.56 0.76 0.93 1.00 1.20 1.50 1.75 1.81 1.75 1.78 1.85 1.82 1.83 1.90 1.86 1.94 2.14 2.15 2.16 2.24 2.43 2.75 3.08 3.06 2.76 2.51 2.68 2.43 2.15 2.06 1.56 1.26 1.32 1.46 1.58
0.40 0.31 0.29 0.32 0.30 0.35 0.49 0.68 0.88 1.18 1.39 1.50 1.65 1.88 1.99 2.02 1.94 1.96 1.98 1.99 1.89 1.82 1.82 1.91 2.10 2.26 2.40 2.53 2.60 2.59 3.00 3.33 3.15 2.93 2.55 2.22 2.09 2.24 2.10 1.62 1.34 1.38 1.42
0.43 0.44 0.43 0.48 0.50 0.60 0.81 1.16 1.44 1.63 1.76 1.79 1.84 2.02 2.16 2.31 2.33 2.24 2.10 2.03 2.01 1.94 1.84 1.86 1.92 1.96 2.08 2.26 2.40 2.46 2.72 2.96 3.14 3.12 2.89 2.59 2.40 1.96 1.96 2.04 1.79 1.53 1.30
0.48 0.58 0.71 0.85 0.94 1.02 1.23 1.47 1.62 1.76 1.74 1.71 1.73 1.84 2.03 2.18 2.20 2.25 2.24 2.13 2.04 1.95 1.81 1.73 1.81 1.83 1.84 1.99 2.12 2.24 2.53 2.73 2.88 2.95 2.87 2.76 2.68 2.36 2.08 1.93 1.90 1.75 1.51
0.57 0.77 0.94 1.10 1.21 1.31 1.42 1.46 1.45 1.52 1.55 1.50 1.50 1.57 1.66 1.69 1.73 1.86 1.80 1.69 1.61 1.56 1.53 1.43 1.46 1.60 1.67 1.85 1.94 1.91 1.99 2.17 2.39 2.57 2.62 2.65 2.56 2.48 2.39 2.24 2.03 1.79 1.47
0.84 0.96 1.07 1.18 1.24 1.37 1.42 1.38 1.34 1.34 1.28 1.21 1.23 1.22 1.28 1.36 1.35 1.36 1.33 1.26 1.22 1.21 1.17 1.16 1.16 1.21 1.30 1.52 1.76 1.79 1.80 1.85 1.93 2.02 2.30 2.48 2.45 2.47 2.26 2.15 2.19 1.96 1.64
1.09 1.27 1.27 1.18 1.13 1.19 1.26 1.24 1.19 1.14 1.05 0.99 1.01 1.02 1.08 1.12 1.09 1.04 0.98 0.99 0.93 0.93 0.92 0.97 1.05 1.12 1.12 1.22 1.37 1.58 1.64 1.72 1.79 1.79 1.95 2.11 2.22 2.21 2.03 2.06 2.16 2.07 1.77
1.18 1.45 1.56 1.44 1.20 1.03 1.06 1.03 1.02 1.06 1.05 1.01 1.01 0.98 0.90 0.82 0.80 0.81 0.74 0.74 0.80 0.82 0.84 0.84 0.90 0.97 1.01 1.10 1.21 1.26 1.36 1.46 1.62 1.79 1.92 1.94 1.98 2.06 1.96 1.95 2.06 2.06 1.88
1.40 1.52 1.53 1.40 1.25 0.99 0.92 0.92 0.91 0.95 1.03 0.97 0.98 0.96 0.85 0.72 0.67 0.62 0.57 0.58 0.62 0.67 0.67 0.73 0.84 0.88 0.91 0.94 0.95 0.99 1.04 1.11 1.23 1.31 1.46 1.66 1.84 1.95 1.95 1.99 2.04 2.07 1.95
1.09 1.08 1.16 1.16 1.10 0.99 0.92 0.99 1.02 1.04 0.99 0.93 0.90 0.87 0.80 0.70 0.70 0.64 0.56 0.58 0.63 0.65 0.65 0.71 0.77 0.79 0.85 0.89 0.87 0.86 0.91 1.03 1.12 1.14 1.18 1.29 1.56 1.72 1.83 1.91 1.94 2.00 1.96
0.82 0.75 0.85 0.99 0.93 0.88 0.92 1.00 1.13 1.16 1.09 0.97 0.89 0.87 0.82 0.80 0.83 0.72 0.63 0.62 0.70 0.82 0.84 0.82 0.85 0.81 0.84 0.87 0.85 0.86 0.89 0.92 0.98 1.01 1.03 1.13 1.27 1.43 1.52 1.62 1.74 1.82 1.93
0.65 0.60 0.57 0.64 0.65 0.67 0.69 0.81 1.06 1.29 1.27 1.14 1.02 0.95 0.90 0.89 0.87 0.74 0.67 0.64 0.67 0.71 0.74 0.81 0.87 0.93 0.98 0.97 0.91 0.90 0.90 0.86 0.87 0.93 1.01 1.03 1.07 1.25 1.47 1.58 1.67 1.72 1.83
0.45 0.40 0.37 0.39 0.41 0.46 0.54 0.65 0.94 1.15 1.17 1.15 1.02 0.92 0.84 0.77 0.72 0.70 0.72 0.66 0.60 0.59 0.59 0.68 0.76 0.86 0.96 1.00 0.99 0.86 0.76 0.77 0.82 0.81 0.82 0.89 0.99 1.09 1.29 1.41 1.64 1.70 1.83
0.36 0.36 0.33 0.30 0.27 0.29 0.37 0.45 0.63 0.81 0.90 0.94 0.90 0.77 0.75 0.68 0.61 0.64 0.72 0.72 0.61 0.55 0.55 0.59 0.57 0.60 0.65 0.84 0.84 0.73 0.61 0.64 0.74 0.80 0.81 0.80 0.84 0.91 0.98 1.02 1.26 1.48 1.63
0.37 0.39 0.38 0.35 0.32 0.31 0.32 0.33 0.39 0.51 0.58 0.63 0.65 0.56 0.55 0.66 0.69 0.71 0.70 0.62 0.53 0.54 0.53 0.48 0.43 0.45 0.51 0.57 0.57 0.63 0.61 0.62 0.66 0.74 0.83 0.87 0.84 0.91 1.00 1.01 1.08 1.18 1.25
0.40 0.36 0.34 0.32 0.30 0.29 0.30 0.31 0.32 0.36 0.37 0.36 0.35 0.33 0.41 0.55 0.58 0.55 0.53 0.47 0.47 0.50 0.55 0.47 0.43 0.47 0.48 0.52 0.58 0.62 0.60 0.70 0.78 0.78 0.76 0.87 0.93 0.99 1.16 1.16 1.23 1.17 1.08
0.21 0.18 0.17 0.17 0.16 0.18 0.20 0.19 0.17 0.20 0.20 0.19 0.19 0.23 0.26 0.29 0.29 0.27 0.29 0.36 0.42 0.46 0.41 0.45 0.59 0.58 0.58 0.67 0.62 0.55 0.61 0.73 0.81 0.77 0.78 0.89 0.97 1.16 1.27 1.29 1.29 1.19 1.12
0.08 0.10 0.12 0.12 0.12 0.14 0.17 0.16 0.17 0.17 0.18 0.18 0.19 0.20 0.22 0.24 0.23 0.23 0.25 0.29 0.32 0.37 0.39 0.43 0.57 0.62 0.66 0.68 0.54 0.52 0.62 0.74 0.83 0.82 0.81 1.03 1.02 1.13 1.18 1.23 1.34 1.35 1.23
0.08 0.10 0.11 0.11 0.12 0.13 0.15 0.14 0.14 0.17 0.22 0.23 0.21 0.19 0.19 0.22 0.27 0.30 0.30 0.29 0.28 0.30 0.34 0.38 0.43 0.44 0.44 0.45 0.45 0.48 0.53 0.63 0.76 0.78 0.80 0.77 0.92 0.96 1.05 1.15 1.21 1.44 1.35
0.08 0.11 0.12 0.13 0.15 0.15 0.16 0.16 0.15 0.18 0.24 0.24 0.22 0.20 0.21 0.23 0.27 0.34 0.35 0.32 0.30 0.28 0.29 0.34 0.41 0.42 0.38 0.35 0.37 0.41 0.48 0.61 0.63 0.64 0.71 0.71 0.80 0.84 0.92 0.93 1.11 1.31 1.30
0.07 0.10 0.13 0.15 0.15 0.16 0.18 0.19 0.20 0.21 0.23 0.25 0.24 0.24 0.24 0.25 0.27 0.30 0.32 0.33 0.31 0.32 0.33 0.34 0.39 0.41 0.41 0.40 0.43 0.46 0.51 0.54 0.50 0.47 0.63 0.71 0.79 0.76 0.74 0.88 1.09 1.14 1.17
0.07 0.08 0.10 0.13 0.18 0.20 0.21 0.23 0.25 0.27 0.27 0.27 0.27 0.26 0.27 0.29 0.30 0.33 0.35 0.37 0.38 0.38 0.37 0.38 0.42 0.45 0.45 0.43 0.40 0.42 0.46 0.47 0.46 0.47 0.63 0.77 0.83 0.79 0.76 0.84 0.97 1.01 1.14
0.12 0.10 0.10 0.12 0.16 0.20 0.22 0.25 0.26 0.29 0.30 0.30 0.30 0.30 0.29 0.30 0.34 0.37 0.39 0.38 0.38 0.41 0.39 0.40 0.44 0.43 0.40 0.42 0.43 0.43 0.45 0.46 0.49 0.59 0.76 0.89 0.90 0.91 0.87 0.89 0.98 0.97 0.95
0.11 0.12 0.12 0.12 0.12 0.15 0.16 0.19 0.21 0.23 0.26 0.31 0.30 0.29 0.32 0.35 0.35 0.36 0.36 0.38 0.39 0.41 0.39 0.38 0.41 0.41 0.40 0.42 0.45 0.48 0.51 0.49 0.59 0.77 0.93 1.06 1.13 1.13 1.08 1.04 1.01 0.93 0.91